Flag for Australia Weather past 2 weeks in Adelaide, South Australia, Australia

Now
81 °F

Sunny.


Feels Like: 80 °F
Forecast: 77 / 93 °F
Wind: 6 mph from North

Location: Adelaide Airport

Current Time: Feb 27, 2015 at 11:16:52 AM

Latest Report: Feb 27, 2015 at 10:30 AM


Visibility: 10 mi

Pressure: 29.80 "Hg

Humidity: 39%

Dew point: 54 °F

Location of AdelaideLocation

Historic Weather in Adelaide — Graph

°F

Adelaide temperature yesterday

Maximum temperature yesterday: 79 °F (at 3:00 PM)
Minimum temperature yesterday: 59 °F (at 4:00 AM)
Average temperature yesterday: 71 °F

Past Weeks' High & Low Weather Summary

 TemperatureHumidityPressure
High104 °F (Feb 14, 3:30 PM)83% (Feb 22, 6:00 AM)30.15 "Hg (Feb 22, 6:00 AM)
Low55 °F (Feb 25, 7:00 AM)11% (Feb 14, 3:30 PM)29.74 "Hg (Feb 21, 5:00 PM)
Average76 °F46%29.95 "Hg
* Reported Feb 12 9:30 AM — Feb 27 10:00 AM, Adelaide, Weather by CustomWeather, © 2015

Note: Actual official high and low records may vary slightly from our data, if they occured in-between our weather recording intervals... More about our weather records

Advertising

Adelaide weather history for previous 24 hours

 ConditionsComfort  
Time TempWeatherWind HumidityBarometerVisibility
10:00 AM
Fri, Feb 27
79 °FSunny.3 mph34%29.83 "Hg10 mi
9:30 AM77 °FSunny.6 mph39%29.83 "Hg10 mi
9:00 AM73 °FSunny.8 mph41%29.83 "Hg10 mi
8:30 AM72 °FSunny.5 mph44%29.83 "Hg10 mi
8:00 AM68 °FSunny.3 mph60%29.80 "Hg10 mi
7:30 AM66 °FSunny.1 mph64%29.80 "Hg10 mi
7:00 AM66 °FClear.No wind64%29.80 "Hg10 mi
6:30 AM64 °FClear.No wind64%29.80 "Hg10 mi
6:00 AM66 °FClear.No wind64%29.80 "Hg10 mi
5:30 AM66 °FClear.2 mph68%29.80 "Hg10 mi
5:00 AM66 °FClear.No wind64%29.77 "Hg10 mi
4:30 AM66 °FClear.No wind64%29.77 "Hg10 mi
4:00 AM66 °FClear.5 mph64%29.77 "Hg10 mi
3:30 AM66 °FClear.5 mph60%29.80 "Hg10 mi
3:00 AM68 °FClear.5 mph56%29.80 "Hg10 mi
2:30 AM68 °FClear.2 mph60%29.80 "Hg10 mi
1:30 AM70 °FClear.No wind57%29.83 "Hg10 mi
12:30 AM72 °FClear.No wind53%29.83 "Hg10 mi
12:00 AM73 °FClear.2 mph44%29.83 "Hg10 mi
11:30 PM
Thu, Feb 26
72 °FClear.5 mph50%29.86 "Hg10 mi
11:00 PM72 °FClear.5 mph53%29.86 "Hg10 mi
10:30 PM73 °FClear.6 mph53%29.86 "Hg10 mi
10:00 PM73 °FClear.8 mph61%29.86 "Hg10 mi
9:30 PM73 °FClear.9 mph65%29.86 "Hg10 mi
9:00 PM75 °FClear.8 mph54%29.83 "Hg10 mi
8:30 PM75 °FClear.9 mph50%29.83 "Hg10 mi
8:00 PM75 °FSunny.12 mph50%29.83 "Hg10 mi
7:30 PM79 °FSunny.9 mph26%29.83 "Hg10 mi
7:00 PM79 °FSunny.10 mph30%29.83 "Hg10 mi
6:30 PM79 °FSunny.10 mph24%29.83 "Hg10 mi
6:00 PM79 °FSunny.12 mph21%29.83 "Hg10 mi
5:30 PM77 °FSunny.16 mph39%29.83 "Hg10 mi
4:30 PM77 °FSunny.16 mph42%29.83 "Hg10 mi
4:00 PM77 °FSunny.15 mph42%29.83 "Hg10 mi
3:30 PM75 °FSunny.16 mph41%29.83 "Hg10 mi
3:00 PM79 °FSunny.14 mph28%29.86 "Hg10 mi
2:00 PM77 °FSunny.9 mph36%29.86 "Hg10 mi
1:30 PM77 °FSunny.9 mph39%29.86 "Hg10 mi
1:00 PM75 °FSunny.9 mph44%29.89 "Hg10 mi
12:30 PM75 °FSunny.7 mph41%29.89 "Hg10 mi
12:00 PM75 °FSunny.8 mph41%29.89 "Hg10 mi
11:30 AM75 °FSunny.9 mph36%29.92 "Hg10 mi
11:00 AM73 °FSunny.8 mph36%29.92 "Hg10 mi
Weather by CustomWeather, © 2015

See weather overviewHow to use our weather pages